Location: ??????
(56.0120°N, 39.1740°E)
Time: 21:53:30
(UTC+00:00)

Meteor 2-3 Rocket - Pass Details

Date: 14 April 2026
Orbit: 845 x 880 km, 81.2° (Epoch: 11 May)

Event Time Altitude Azimuth Distance (km) Brightness Sun altitude
Rises 19:46:27 0° 346° (NNW) 3,439 8.3 -21.3°
Reaches altitude 10° 19:49:02 10° 353° (N) 2,494 7.2 -21.5°
Maximum altitude 19:54:25 43° 65° (ENE) 1,179 4.4 -21.8°
Enters shadow 19:56:12 33° 108° (ESE) 1,386 4.5 -21.9°
